GW2741 Weather Reports


Display with metric or nautical units.
time (UTC)temp
F
wind
direction
speed
MPH
gust
MPH
rain 1hr
in
rain 24hr
in
rain mn
in
humidity
%
barometer
mb
20260506061516 43 167 2.0 4.0 0.00 0.00 1.68 74 1013.5
20260505223629 46 326 7.0 11.0 0.00 0.00 0.00 45 1013.7
20260505221830 46 326 7.0 12.0 0.00 0.00 0.00 44 1013.9
20260505220930 46 336 6.0 11.0 0.00 0.00 0.00 43 1013.7
20260505220030 46 345 6.0 13.0 0.00 0.00 0.00 43 1013.9
20260505215130 46 333 6.0 11.0 0.00 0.00 0.00 41 1013.9
20260505214230 45 327 5.0 10.0 0.00 0.00 0.00 47 1013.8
20260505213330 46 325 6.0 13.0 0.00 0.00 0.00 41 1014.0
20260505212430 45 333 5.0 9.0 0.00 0.00 0.00 47 1014.1
20260505211530 46 334 7.0 12.0 0.00 0.00 0.00 41 1013.9
20260505210630 46 338 6.0 12.0 0.00 0.00 0.00 42 1014.1
20260505205730 46 337 5.0 11.0 0.00 0.00 0.00 42 1014.1
20260505204830 46 312 6.0 13.0 0.00 0.00 0.00 42 1014.2
20260505203930 45 348 4.0 8.0 0.00 0.00 0.00 47 1014.2
20260505202130 46 347 7.0 17.0 0.00 0.00 0.00 40 1014.0
20260505201231 46 333 7.0 12.0 0.00 0.00 0.00 40 1013.9
20260505200330 46 318 6.0 13.0 0.00 0.00 0.00 40 1014.1
20260505195430 46 317 5.0 13.0 0.00 0.00 0.00 41 1014.1
20260505194531 46 325 6.0 11.0 0.00 0.00 0.00 41 1014.3
20260505193630 47 333 5.0 10.0 0.00 0.00 0.00 40 1014.1
20260505192730 48 348 6.0 13.0 0.00 0.00 0.00 40 1014.1
20260505191830 48 334 7.0 12.0 0.00 0.00 0.00 40 1013.9
20260505190030 49 342 6.0 11.0 0.00 0.00 0.00 37 1014.0
20260505185130 50 356 7.0 17.0 0.00 0.00 0.00 36 1014.2
20260505184230 51 335 6.0 17.0 0.00 0.00 0.00 37 1014.1
20260505183330 51 320 6.0 11.0 0.00 0.00 0.00 38 1013.9
20260505182430 51 357 6.0 11.0 0.00 0.00 0.00 37 1014.1
20260505181530 51 330 8.0 16.0 0.00 0.00 0.00 37 1014.0
20260505180630 52 322 6.0 11.0 0.00 0.00 0.00 36 1014.0
20260505174830 53 332 6.0 10.0 0.00 0.00 0.00 38 1014.0
20260505173930 53 338 7.0 13.0 0.00 0.00 0.00 38 1014.0
20260505173030 52 335 9.0 17.0 0.00 0.00 0.00 37 1013.9
20260505172130 54 325 7.0 15.0 0.00 0.00 0.00 37 1013.9
20260505171230 54 328 6.0 15.0 0.00 0.00 0.00 36 1013.9
20260505170330 54 327 7.0 15.0 0.00 0.00 0.00 38 1014.0
20260505165430 53 340 9.0 15.0 0.00 0.00 0.00 37 1014.1
20260505163630 53 335 10.0 15.0 0.00 0.00 0.00 40 1014.1
20260505162730 53 329 10.0 17.0 0.00 0.00 0.00 40 1013.8
20260505161830 53 319 10.0 14.0 0.00 0.00 0.00 40 1013.9
20260505160930 53 334 10.0 17.0 0.00 0.00 0.00 40 1014.0
20260505152430 53 346 10.0 17.0 0.00 0.00 0.00 41 1014.0
20260505150630 54 326 10.0 15.0 0.00 0.00 0.00 43 1013.9
20260505124230 55 337 8.0 11.0 0.00 0.00 0.00 41 1013.5
20260505123330 55 330 8.0 14.0 0.00 0.00 0.00 41 1013.9
20260505122430 56 331 7.0 11.0 0.00 0.00 0.00 41 1013.7
20260505121530 56 328 8.0 11.0 0.00 0.00 0.00 42 1013.8
20260505120630 56 319 7.0 11.0 0.00 0.00 0.00 41 1013.8
20260505115730 56 304 8.0 11.0 0.00 0.00 0.00 41 1013.8
20260505114830 56 331 8.0 12.0 0.00 0.00 0.00 43 1013.9
20260505113930 55 322 8.0 12.0 0.00 0.00 0.00 43 1013.6
20260505113030 55 316 9.0 13.0 0.00 0.00 0.00 43 1014.0
20260505112130 55 336 9.0 14.0 0.00 0.00 0.00 42 1013.9
20260505111230 55 321 9.0 15.0 0.00 0.00 0.00 41 1013.7
20260505101830 56 335 8.0 11.0 0.00 0.00 0.00 36 1013.8
20260505100030 57 310 6.0 10.0 0.00 0.00 0.00 36 1013.7
20260505095130 58 330 4.0 8.0 0.00 0.00 0.00 37 1013.5
20260505094230 57 333 5.0 9.0 0.00 0.00 0.00 38 1013.6
20260505092430 57 324 5.0 11.0 0.00 0.00 0.00 40 1013.7
20260505091530 56 347 7.0 11.0 0.00 0.00 0.00 40 1013.6
20260505090630 56 337 6.0 11.0 0.00 0.00 0.00 40 1013.7
20260505085730 57 338 5.0 9.0 0.00 0.00 0.00 42 1013.7
20260505084832 56 338 5.0 9.0 0.00 0.00 0.00 42 1013.5
20260505083930 55 330 6.0 12.0 0.00 0.00 0.00 41 1013.7
20260505082130 54 331 8.0 11.0 0.00 0.00 0.00 43 1013.6
20260505081230 55 333 6.0 10.0 0.00 0.00 0.00 41 1013.7
20260505080330 54 356 7.0 12.0 0.00 0.00 0.00 42 1013.7
20260505075430 54 337 5.0 10.0 0.00 0.00 0.00 43 1013.4
20260505073630 54 333 5.0 9.0 0.00 0.00 0.00 49 1013.5
20260505071830 53 333 6.0 10.0 0.00 0.00 0.00 56 1013.7
20260505070930 52 336 4.0 8.0 0.00 0.00 0.00 61 1013.4
20260505070030 50 319 5.0 11.0 0.00 0.00 0.00 62 1013.5
20260505065130 50 326 4.0 8.0 0.00 0.00 0.00 65 1013.4
20260505064230 49 336 4.0 8.0 0.00 0.00 0.00 68 1013.4
20260505062430 49 354 3.0 9.0 0.00 0.00 0.00 71 1013.4